EW4074 Weather Reports


Display with metric or nautical units.
time (UTC)temp
F
wind
direction
speed
MPH
gust
MPH
rain 1hr
in
rain 24hr
in
rain mn
in
humidity
%
barometer
mb
20260906020636 70 159 0.0 0.0 0.00 0.17 0.17 97 1041.5
20260906020130 70 159 0.0 0.0 0.00 0.17 0.17 97 1041.5
20260906015619 70 159 0.0 0.0 0.00 0.17 0.17 97 1041.5
20260906015118 70 159 0.0 0.0 0.00 0.17 0.17 97 1041.3
20260906014612 70 159 0.0 0.0 0.00 0.17 0.17 97 1041.3
20260906014106 70 159 0.0 0.0 0.00 0.17 0.17 97 1041.3
20260906013600 70 159 0.0 0.0 0.00 0.17 0.17 97 1041.3
20260906013054 70 159 0.0 0.0 0.00 0.17 0.17 97 1041.3
20260906012544 70 159 0.0 0.0 0.00 0.17 0.17 97 1041.3
20260906012038 71 159 0.0 0.0 0.00 0.17 0.17 97 1041.0
20260906011536 71 159 0.0 0.0 0.00 0.17 0.17 97 1041.0
20260906011030 71 159 0.0 0.0 0.00 0.17 0.17 97 1041.0
20260906010524 71 159 0.0 0.0 0.00 0.17 0.17 96 1040.8
20260906010018 71 159 0.0 0.0 0.00 0.17 0.17 96 1040.8
20260906005512 71 159 0.0 0.0 0.00 0.17 0.17 96 1040.8
20260906005006 71 159 0.0 0.0 0.00 0.17 0.17 96 1040.7
20260906004455 71 159 0.0 0.0 0.00 0.17 0.17 96 1040.7
20260906003954 71 159 0.0 0.0 0.00 0.17 0.17 96 1040.7
20260906003444 71 159 0.0 0.0 0.00 0.17 0.17 96 1040.7
20260906002942 71 159 0.0 0.0 0.00 0.17 0.17 96 1040.7
20260906002436 71 159 0.0 0.0 0.00 0.17 0.17 96 1040.7
20260906001930 71 159 0.0 0.0 0.00 0.17 0.17 96 1040.6
20260906001424 71 159 0.0 0.0 0.00 0.17 0.17 96 1040.6
20260906000913 71 159 0.0 0.0 0.00 0.17 0.17 96 1040.6
20260906000634 71 159 0.0 0.0 0.00 0.17 0.17 95 1040.4
20260905235905 71 159 0.0 0.0 0.00 0.17 0.17 95 1040.4
20260905235625 71 159 0.0 0.0 0.00 0.17 0.17 95 1040.4
20260905234854 72 159 0.0 0.0 0.00 0.17 0.17 95 1040.4
20260905234348 72 159 0.0 0.0 0.00 0.17 0.17 95 1040.4
20260905234102 72 159 0.0 0.0 0.00 0.17 0.17 95 1040.3
20260905233822 72 159 0.0 0.0 0.00 0.17 0.17 94 1040.3
20260905233046 72 159 0.0 0.0 0.00 0.17 0.17 94 1040.3
20260905232323 73 159 0.0 0.0 0.00 0.17 0.17 94 1040.3
20260905231818 73 159 0.0 0.0 0.00 0.17 0.17 93 1040.3
20260905231312 73 159 0.0 0.0 0.00 0.17 0.17 93 1040.3
20260905230806 73 159 0.0 0.0 0.00 0.17 0.17 93 1040.3
20260905230259 74 159 0.0 0.0 0.00 0.17 0.17 92 1040.3
20260905230021 74 159 0.0 0.0 0.00 0.17 0.17 92 1040.3
20260905225254 74 159 0.0 0.0 0.00 0.17 0.17 91 1040.3
20260905224752 75 159 0.0 0.0 0.00 0.17 0.17 91 1040.3
20260905224249 76 159 0.0 0.0 0.00 0.17 0.17 90 1040.3
20260905223750 76 159 0.0 0.0 0.00 0.17 0.17 89 1040.1
20260905223249 77 159 0.0 0.0 0.00 0.17 0.17 89 1040.1
20260905222744 77 159 0.0 0.0 0.00 0.17 0.17 88 1040.1
20260905222244 78 159 0.0 2.0 0.00 0.17 0.17 87 1039.9
20260905221743 79 159 1.0 3.0 0.00 0.17 0.17 86 1039.9
20260905221241 80 159 0.0 3.0 0.00 0.17 0.17 84 1039.9
20260905220739 80 146 0.0 0.0 0.00 0.17 0.17 85 1039.7
20260905220238 80 74 0.0 0.0 0.00 0.17 0.17 85 1039.7
20260905215736 80 71 0.0 2.0 0.00 0.17 0.17 83 1039.7
20260905215236 80 13 0.0 2.0 0.00 0.17 0.17 83 1039.7
20260905214734 81 165 0.0 0.0 0.00 0.17 0.17 84 1039.7
20260905214233 81 110 0.0 0.0 0.00 0.17 0.17 83 1039.7
20260905213736 81 111 0.0 0.0 0.00 0.17 0.17 81 1039.3
20260905213237 81 229 0.0 0.0 0.00 0.17 0.17 86 1039.3
20260905212730 80 229 0.0 0.0 0.00 0.17 0.17 87 1039.3
20260905212219 79 195 0.0 2.0 0.00 0.17 0.17 87 1039.4
20260905211713 78 195 0.0 2.0 0.00 0.17 0.17 86 1039.4
20260905211208 78 76 0.0 2.0 0.00 0.17 0.17 88 1039.4
20260905210701 78 111 0.0 0.0 0.00 0.17 0.17 91 1039.2
20260905210155 77 107 1.0 3.0 0.00 0.17 0.17 90 1039.2
20260905205650 77 109 1.0 3.0 0.01 0.17 0.17 90 1039.2
20260905205356 77 87 0.0 3.0 0.02 0.17 0.17 90 1039.2
20260905204637 77 113 0.0 1.0 0.04 0.17 0.17 92 1039.2
20260905204131 76 144 0.0 1.0 0.11 0.17 0.17 93 1039.2
20260905203843 75 105 0.0 1.0 0.12 0.17 0.17 93 1039.5
20260905203119 75 237 0.0 0.0 0.15 0.17 0.17 94 1039.5
20260905202614 74 238 0.0 1.0 0.15 0.17 0.17 93 1039.5
20260905202109 74 204 0.0 3.0 0.15 0.17 0.17 94 1039.8
20260905201835 74 196 1.0 3.0 0.15 0.17 0.17 94 1039.8
20260905201107 74 335 0.0 2.0 0.15 0.17 0.17 93 1039.8
20260905200606 74 231 0.0 2.0 0.15 0.17 0.17 94 1039.8
20260905200107 74 278 0.0 2.0 0.15 0.17 0.17 94 1039.8
20260905195830 74 184 0.0 2.0 0.14 0.16 0.16 93 1039.8
20260905195107 74 277 0.0 2.0 0.13 0.15 0.15 92 1039.8
20260905194605 75 49 0.0 0.0 0.11 0.13 0.14 91 1039.8
20260905194103 76 51 0.0 0.0 0.04 0.06 0.06 90 1039.8
20260905193603 77 51 0.0 0.0 0.03 0.05 0.05 88 1039.9
20260905193103 78 259 0.0 2.0 0.00 0.02 0.02 87 1039.9
20260905192603 79 259 0.0 2.0 0.00 0.03 0.02 84 1039.9
20260905192058 80 128 0.0 3.0 0.00 0.03 0.02 83 1039.8
20260905191817 80 19 0.0 3.0 0.00 0.03 0.02 82 1039.8
20260905191054 80 307 0.0 2.0 0.00 0.06 0.02 83 1039.8
20260905190553 80 17 0.0 2.0 0.00 0.19 0.02 82 1040.1
20260905190051 80 306 0.0 1.0 0.00 0.27 0.02 82 1040.1
20260905185549 80 323 0.0 2.0 0.00 0.27 0.02 84 1040.1
20260905185530 80 335 0.0 3.0 0.00 0.27 0.02 84 1040.2
20260905184545 80 101 0.0 3.0 0.00 0.27 0.02 84 1040.2
20260905184043 79 264 0.0 0.0 0.00 0.27 0.02 84 1040.2
20260905183536 79 262 0.0 0.0 0.00 0.27 0.02 85 1040.3
20260905183031 80 262 0.0 0.0 0.00 0.27 0.02 86 1040.3
20260905182747 79 256 1.0 3.0 0.00 0.27 0.02 85 1040.3
20260905182018 80 241 2.0 4.0 0.00 0.27 0.02 83 1040.3
20260905181733 80 255 2.0 6.0 0.00 0.27 0.02 83 1040.3
20260905181003 80 234 1.0 6.0 0.00 0.27 0.02 82 1040.3
20260905180501 80 284 1.0 7.0 0.00 0.27 0.02 83 1040.3
20260905175955 80 274 2.0 7.0 0.00 0.27 0.02 84 1040.3
20260905175449 80 118 1.0 5.0 0.00 0.27 0.02 83 1040.3
20260905174943 80 138 0.0 0.0 0.00 0.27 0.02 83 1040.5
20260905174443 79 109 0.0 0.0 0.00 0.27 0.02 85 1040.5
20260905173940 79 105 0.0 0.0 0.00 0.27 0.02 85 1040.5
20260905173441 78 156 0.0 0.0 0.00 0.27 0.02 85 1040.7
20260905172940 78 96 0.0 0.0 0.00 0.27 0.02 88 1040.7
20260905172439 78 102 0.0 0.0 0.00 0.27 0.02 86 1040.7
20260905171937 78 103 0.0 0.0 0.00 0.27 0.02 86 1040.8
20260905171437 78 95 0.0 0.0 0.00 0.27 0.02 88 1040.8
20260905170935 77 95 0.0 0.0 0.00 0.27 0.02 88 1040.8
20260905170434 77 95 0.0 0.0 0.00 0.27 0.02 89 1041.1
20260905165932 76 95 0.0 0.0 0.00 0.27 0.02 91 1041.1
20260905165431 76 95 0.0 0.0 0.02 0.27 0.02 90 1041.1
20260905165417 76 95 0.0 0.0 0.02 0.27 0.02 92 1041.3
20260905164433 76 123 0.0 0.0 0.02 0.27 0.02 91 1041.3
20260905163927 75 123 0.0 0.0 0.02 0.27 0.02 91 1041.3
20260905163415 75 123 0.0 0.0 0.02 0.27 0.02 92 1041.3
20260905163138 74 123 0.0 0.0 0.02 0.27 0.02 91 1041.3
20260905162415 74 123 0.0 0.0 0.02 0.27 0.02 92 1041.3
20260905162359 74 123 0.0 0.0 0.02 0.27 0.02 93 1041.4
20260905161415 74 123 0.0 0.0 0.02 0.27 0.02 93 1041.4
20260905160914 74 123 0.0 0.0 0.02 0.27 0.02 93 1041.4
20260905160637 74 123 0.0 0.0 0.02 0.27 0.02 93 1041.8
20260905155917 74 123 0.0 0.0 0.02 0.27 0.02 92 1041.8
20260905155417 74 230 0.0 0.0 0.00 0.25 0.00 92 1041.8
20260905154912 74 230 0.0 0.0 0.00 0.25 0.00 92 1041.8
20260905154359 74 230 0.0 0.0 0.00 0.25 0.00 92 1041.8
20260905153847 75 230 0.0 0.0 0.00 0.25 0.00 92 1041.8
20260905153335 75 234 0.0 0.0 0.00 0.25 0.00 91 1041.8
20260905152823 75 232 0.0 0.0 0.00 0.25 0.00 90 1041.8
20260905152532 75 233 0.0 0.0 0.00 0.25 0.00 90 1042.1
20260905152031 75 238 0.0 0.0 0.00 0.25 0.00 91 1042.1
20260905151256 75 239 0.0 0.0 0.00 0.25 0.00 90 1042.1
20260905151006 75 238 0.0 0.0 0.00 0.25 0.00 90 1042.2
20260905150510 75 238 0.0 0.0 0.00 0.25 0.00 90 1042.2
20260905145738 75 265 0.0 1.0 0.00 0.25 0.00 91 1042.2
20260905145231 75 268 0.0 1.0 0.00 0.25 0.00 91 1041.8
20260905144726 74 268 0.0 1.0 0.00 0.25 0.00 91 1041.8
20260905144219 74 255 0.0 3.0 0.00 0.25 0.00 92 1041.8
20260905143713 74 245 0.0 3.0 0.00 0.25 0.00 91 1041.8
20260905143200 74 240 0.0 1.0 0.00 0.25 0.00 92 1041.8
20260905142701 74 240 0.0 2.0 0.00 0.25 0.00 92 1041.8
20260905142154 74 232 0.0 2.0 0.00 0.25 0.00 92 1041.8
20260905141649 74 232 0.0 2.0 0.00 0.25 0.00 91 1041.8
20260905141143 74 232 0.0 2.0 0.00 0.25 0.00 91 1041.8
20260905140637 74 257 0.0 2.0 0.00 0.25 0.00 91 1041.6
20260905140130 74 251 0.0 2.0 0.00 0.25 0.00 92 1041.6
20260905135618 74 254 0.0 1.0 0.00 0.25 0.00 93 1041.6
20260905135118 74 254 0.0 2.0 0.00 0.25 0.00 93 1041.3
20260905134612 73 255 0.0 3.0 0.00 0.25 0.00 93 1041.3
20260905134106 73 270 0.0 3.0 0.00 0.25 0.00 94 1041.3
20260905133601 73 234 0.0 0.0 0.00 0.25 0.00 95 1041.2
20260905133055 73 242 0.0 0.0 0.00 0.25 0.00 97 1041.2
20260905132549 72 242 0.0 0.0 0.00 0.25 0.00 97 1041.2
20260905132035 72 245 0.0 0.0 0.00 0.25 0.00 98 1041.3
20260905131538 71 230 0.0 0.0 0.00 0.25 0.00 99 1041.3
20260905131031 71 230 0.0 0.0 0.00 0.25 0.00 99 1041.3
20260905130608 70 230 0.0 0.0 0.00 0.25 0.00 99 1041.5
20260905125514 70 230 0.0 0.0 0.00 0.25 0.00 99 1041.5
20260905125006 70 227 0.0 0.0 0.00 0.25 0.00 99 1041.4
20260905124455 70 227 0.0 0.0 0.00 0.25 0.00 99 1041.4
20260905123955 70 227 0.0 0.0 0.00 0.25 0.00 99 1041.4
20260905123450 70 227 0.0 0.0 0.00 0.25 0.00 99 1041.3
20260905122943 70 225 0.0 0.0 0.00 0.25 0.00 99 1041.3
20260905122438 69 225 0.0 0.0 0.00 0.25 0.00 99 1041.3
20260905122423 69 225 0.0 0.0 0.00 0.25 0.00 99 1041.2
20260905121649 69 225 0.0 0.0 0.00 0.25 0.00 99 1041.2
20260905121131 68 225 0.0 0.0 0.00 0.25 0.00 99 1041.2
20260905120414 68 225 0.0 0.0 0.00 0.25 0.00 99 1041.2
20260905115906 68 225 0.0 0.0 0.00 0.25 0.00 99 1041.2
20260905115402 68 225 0.0 0.0 0.00 0.25 0.00 99 1041.2
20260905114855 67 225 0.0 0.0 0.00 0.25 0.00 99 1041.0
20260905114350 67 225 0.0 0.0 0.00 0.25 0.00 99 1041.0
20260905113843 67 225 0.0 0.0 0.00 0.25 0.00 99 1040.8
20260905113548 67 225 0.0 0.0 0.00 0.25 0.00 99 1040.8
20260905113055 66 225 0.0 0.0 0.00 0.25 0.00 99 1040.8
20260905112325 66 225 0.0 0.0 0.00 0.25 0.00 99 1040.8
20260905111818 65 225 0.0 0.0 0.00 0.25 0.00 99 1040.8
20260905111313 65 225 0.0 0.0 0.00 0.25 0.00 99 1040.8
20260905110759 65 225 0.0 0.0 0.00 0.25 0.00 99 1040.7
20260905110302 65 225 0.0 0.0 0.00 0.25 0.00 99 1040.7
20260905105755 65 225 0.0 0.0 0.00 0.25 0.00 99 1040.7
20260905105250 65 225 0.0 0.0 0.00 0.25 0.00 99 1040.7
20260905104743 65 225 0.0 0.0 0.00 0.25 0.00 99 1040.7
20260905104503 65 225 0.0 0.0 0.00 0.25 0.00 99 1040.7
20260905103951 65 225 0.0 0.0 0.00 0.25 0.00 98 1040.2
20260905103226 65 225 0.0 0.0 0.00 0.25 0.00 99 1040.2
20260905102943 65 225 0.0 0.0 0.00 0.25 0.00 98 1040.2
20260905102207 65 225 0.0 0.0 0.00 0.25 0.00 98 1040.2
20260905101706 65 225 0.0 0.0 0.00 0.25 0.00 98 1040.2
20260905101201 65 225 0.0 0.0 0.00 0.25 0.00 99 1040.2
20260905100654 65 225 0.0 0.0 0.00 0.25 0.00 98 1040.2
20260905100149 65 225 0.0 0.0 0.00 0.25 0.00 98 1040.2
20260905095642 65 225 0.0 0.0 0.00 0.25 0.00 98 1040.2
20260905095137 65 225 0.0 0.0 0.00 0.25 0.00 98 1040.3
20260905094623 65 225 0.0 0.0 0.00 0.25 0.00 98 1040.3
20260905094125 65 225 0.0 0.0 0.00 0.25 0.00 98 1040.3
20260905093618 65 225 0.0 0.0 0.00 0.25 0.00 98 1040.2
20260905093112 65 225 0.0 0.0 0.00 0.25 0.00 98 1040.2
20260905092606 65 225 0.0 0.0 0.00 0.25 0.00 98 1040.2
20260905092053 65 225 0.0 0.0 0.00 0.25 0.00 98 1040.2
20260905091817 65 225 0.0 0.0 0.00 0.25 0.00 98 1040.2
20260905091532 65 225 0.0 0.0 0.00 0.25 0.00 98 1040.2
20260905090543 65 225 0.0 0.0 0.00 0.25 0.00 98 1040.3
20260905090037 65 225 0.0 0.0 0.00 0.25 0.00 98 1040.3
20260905085530 65 225 0.0 0.0 0.00 0.25 0.00 97 1040.3
20260905085022 65 225 0.0 0.0 0.00 0.25 0.00 97 1040.2
20260905084737 65 225 0.0 0.0 0.00 0.25 0.00 97 1040.2
20260905084249 66 225 0.0 0.0 0.00 0.25 0.00 97 1040.2
20260905083516 66 225 0.0 0.0 0.00 0.25 0.00 97 1040.3
20260905083015 66 225 0.0 0.0 0.00 0.25 0.00 97 1040.3
20260905082516 66 225 0.0 0.0 0.00 0.25 0.00 97 1040.3
20260905082232 66 225 0.0 0.0 0.00 0.25 0.00 97 1040.3
20260905081514 67 225 0.0 0.0 0.00 0.25 0.00 97 1040.3
20260905081013 67 225 0.0 0.0 0.00 0.25 0.00 97 1040.3
20260905080514 67 225 0.0 0.0 0.00 0.25 0.00 97 1040.3
20260905080016 67 225 0.0 0.0 0.00 0.25 0.00 97 1040.3
20260905075516 67 225 0.0 0.0 0.00 0.25 0.00 96 1040.3
20260905075011 67 225 0.0 0.0 0.00 0.25 0.00 96 1040.3
20260905074458 67 225 0.0 0.0 0.00 0.26 0.00 96 1040.3
20260905073957 68 225 0.0 0.0 0.00 0.26 0.00 96 1040.3
20260905073458 68 225 0.0 0.0 0.00 0.26 0.00 96 1040.6
20260905072958 68 225 0.0 0.0 0.00 0.26 0.00 96 1040.6
20260905072457 68 225 0.0 0.0 0.00 0.26 0.00 96 1040.6
20260905071958 68 225 0.0 0.0 0.00 0.26 0.00 96 1040.7
20260905071726 68 225 0.0 0.0 0.00 0.26 0.00 96 1040.7
20260905071000 69 225 0.0 0.0 0.00 0.26 0.00 95 1040.7
20260905070500 69 225 0.0 0.0 0.00 0.26 0.00 95 1040.8
20260905065954 69 225 0.0 0.0 0.00 0.26 0.00 95 1040.8
20260905065442 69 232 0.0 0.0 0.00 0.26 0.00 95 1040.8
20260905064931 69 231 0.0 0.0 0.00 0.26 0.00 95 1040.8
20260905064642 69 232 0.0 0.0 0.00 0.26 0.00 95 1040.8
20260905063906 69 232 0.0 0.0 0.00 0.26 0.00 94 1040.8
20260905063354 69 231 0.0 0.0 0.00 0.26 0.00 94 1041.0
20260905062844 70 231 0.0 0.0 0.00 0.26 0.00 94 1041.0
20260905062336 70 231 0.0 0.0 0.00 0.26 0.00 93 1041.3
20260905061830 70 231 0.0 0.0 0.00 0.26 0.00 93 1041.3
20260905061322 70 231 0.0 1.0 0.00 0.26 0.00 93 1041.3
20260905060817 71 231 0.0 2.0 0.00 0.26 0.00 93 1041.3
20260905060312 71 249 1.0 4.0 0.00 0.26 0.00 93 1041.3
20260905055801 71 230 1.0 4.0 0.00 0.26 0.00 93 1041.3
20260905055259 71 252 0.0 3.0 0.00 0.26 0.00 93 1041.5
20260905054754 71 241 0.0 2.0 0.00 0.26 0.00 93 1041.5
20260905054248 71 193 0.0 2.0 0.00 0.26 0.00 93 1041.5
20260905053741 71 218 0.0 3.0 0.00 0.26 0.00 94 1041.8
20260905053237 70 258 0.0 3.0 0.00 0.26 0.00 94 1041.8
20260905052730 70 207 0.0 1.0 0.00 0.26 0.00 94 1041.8
20260905052216 70 265 0.0 1.0 0.00 0.26 0.00 94 1042.2
20260905051718 70 240 0.0 3.0 0.00 0.26 0.00 95 1042.2
20260905051211 70 247 0.0 3.0 0.00 0.26 0.00 95 1042.2
20260905050706 70 277 0.0 2.0 0.00 0.26 0.00 95 1042.3
20260905050422 70 275 0.0 2.0 0.00 0.26 0.00 96 1042.3
20260905045646 70 238 0.0 2.0 0.00 0.26 0.00 96 1042.3
20260905045148 70 302 0.0 2.0 0.00 0.26 0.00 96 1042.2
20260905044634 70 304 0.0 2.0 0.00 0.26 0.00 96 1042.2
20260905044136 70 350 0.0 1.0 0.00 0.26 0.00 96 1042.2
20260905043852 70 257 0.0 1.0 0.00 0.26 0.00 97 1042.2
20260905043123 70 35 0.0 1.0 0.00 0.26 0.00 97 1042.2
20260905042617 70 38 0.0 1.0 0.00 0.26 0.00 97 1042.2
20260905042326 70 15 0.0 0.0 0.00 0.26 0.00 97 1042.1
20260905041606 70 292 0.0 1.0 0.00 0.27 0.00 97 1042.1
20260905041100 70 292 0.0 1.0 0.00 0.27 0.00 97 1042.1
20260905040817 70 299 0.0 1.0 0.00 0.29 0.00 97 1042.3
20260905040048 70 295 0.0 1.0 0.00 0.29 0.00 97 1042.3
20260905035542 70 295 0.0 1.0 0.00 0.30 0.29 97 1042.3
20260905035035 70 266 0.0 1.0 0.00 0.31 0.29 97 1042.3
20260905034529 70 266 0.0 1.0 0.00 0.31 0.29 98 1042.3
20260905034024 70 266 0.0 1.0 0.00 0.32 0.29 98 1042.3
20260905033734 70 266 0.0 0.0 0.00 0.32 0.29 98 1042.4
20260905033233 70 266 0.0 1.0 0.00 0.32 0.29 98 1042.4
20260905032506 70 266 0.0 1.0 0.00 0.32 0.29 98 1042.4
20260905031959 70 260 0.0 1.0 0.00 0.33 0.29 98 1042.3
20260905031715 70 260 0.0 1.0 0.00 0.33 0.29 99 1042.3
20260905030943 70 260 0.0 1.0 0.00 0.36 0.29 99 1042.3
20260905030442 70 260 0.0 1.0 0.00 0.37 0.29 99 1042.3
20260905025929 70 232 0.0 1.0 0.00 0.37 0.29 99 1042.3
20260905025430 70 227 0.0 0.0 0.00 0.37 0.29 99 1042.3
20260905024924 70 227 0.0 0.0 0.00 0.38 0.29 98 1042.2
20260905024418 69 227 0.0 0.0 0.00 0.40 0.29 98 1042.2
20260905023912 69 227 0.0 0.0 0.00 0.41 0.29 98 1042.2
20260905023358 70 227 0.0 0.0 0.00 0.46 0.29 98 1042.2
20260905022900 70 227 0.0 0.0 0.00 0.51 0.29 98 1042.2
20260905022354 70 227 0.0 0.0 0.00 0.63 0.29 98 1041.9
20260905021848 70 227 0.0 0.0 0.00 0.65 0.29 98 1041.9
20260905021342 70 227 0.0 0.0 0.00 0.65 0.29 98 1041.9